GFSNE_prec_radar_258.txt.gz
Reflectivity
-20 -19 -17 -20 -20 -20 -20 -20 -20 -20 -20 -20 -11 -20 -20 -3 -10 -20 -20 -20 -12 -18 2 -2 7 9 1 4 8 6 3 -9 3 7 -18 -20 -20 -20
-20 -20 -20 -11 -20 -20 -20 -20 -20 -20 -20 -20 -20 -20 -20 -20 -14 -20 -17 -20 -18 11 10 -6 15 -10 6 9 -3 -1 -14 -20 6 11 8 -4 -16 -11
-20 -20 -20 -20 -20 -20 -20 -20 -7 -8 -20 -20 -20 -20 -20 -20 4 -1 7 -20 -16 -8 18 7 -2 8 10 1 -6 3 -8 -20 -18 -20 11 -0 13 15
-20 -20 -18 -20 -20 -20 -20 -20 -20 -20 -20 -20 -20 -20 -20 -20 -20 -19 -11 -20 -20 13 14 -9 11 6 -5 8 6 6 5 3 -20 10 7 2 12 10
-20 -20 -20 -20 -20 -20 -20 -20 -20 -16 -15 -20 -16 -19 -20 -17 -20 -20 -20 -17 -8 20 18 13 5 8 6 4 5 -9 5 10 8 -18 -20 -16 -3 -0
-20 -20 -20 -20 -20 -20 -20 -20 -20 -20 -20 -20 -20 -7 -20 -20 -20 -20 -19 -11 4 -7 16 15 12 12 11 4 -8 -7 12 11 12 -19 -20 -20 -20 -20
-9 -20 -20 10 7 -3 -20 -20 -20 -20 -18 -8 -14 -20 -20 -18 -12 -2 4 -8 -2 13 7 3 -6 -14 -16 -20 4 11 7 7 -20 -20 -20 -20 -20 -20
4 -20 -20 6 7 -17 -4 8 2 -20 -20 -20 -20 -20 -1 -3 -10 -8 6 5 2 -10 -12 -20 -20 -20 -20 -20 14 11 8 -20 -20 -20 -20 -20 -20 -20
-20 -17 -13 -17 6 -20 -7 6 -17 -20 -18 -19 -20 -18 -20 -20 -20 -20 -20 -20 -20 -20 -20 -20 -20 -20 -20 -20 -14 -4 -20 -20 -20 -20 -20 -20 -20 -20
-20 -14 -17 10 -1 -13 -11 -20 -20 -20 -20 -20 -20 -20 -20 -20 -20 -20 -20 -20 -20 -20 -20 -20 -20 -20 -20 -20 -20 -20 -20 -20 -20 -20 -20 -20 -20 -20
-20 -20 -19 -13 21 6 -13 -20 -20 -20 -20 -20 -20 -20 -20 -20 -20 -20 -20 -20 -20 -20 -20 -20 -20 -20 -20 -20 -20 -20 -20 -20 -20 -20 -20 -20 -20 -20
-18 -19 1 6 18 9 -14 -20 -20 -20 -20 -20 -20 -20 -20 -20 -20 -20 -20 -20 -20 -20 -20 -20 -20 -20 -20 -20 -20 -20 -20 -20 -20 -20 -20 -20 -20 -20
-15 -19 -7 14 17 8 -9 -20 -20 -20 -20 -20 -20 -20 -20 -20 -20 -20 -20 -20 -20 -20 -20 -20 -20 -20 -20 -20 -20 -20 -20 -20 -20 -20 -20 -20 -20 -20
-20 -20 -13 8 -5 -6 -20 -20 -20 -20 -20 -20 -20 -20 -20 -20 -20 -20 -20 -20 -20 -20 -20 -20 -20 -20 -20 -20 -20 -20 -20 -20 -20 -20 -20 -20 -20 -20
-20 -20 -20 -20 -20 -20 -20 -20 -20 -20 -20 -20 -20 -20 -20 -20 -20 -20 -20 -20 -20 -20 -20 -20 -20 -20 -20 -20 -20 -20 -20 -20 -20 -20 -20 -20 -20 -20
-20 -20 -20 -20 -20 -20 -20 -20 -20 -20 -20 -20 -20 -20 -20 -20 -20 -20 -20 -20 -20 -20 -20 -20 -20 -20 -20 -20 -20 -20 -20 -20 -20 -20 -20 -20 -20 -20
-20 -20 -20 -20 -20 -20 -20 -20 -20 -20 -20 -20 -20 -20 -20 -20 -20 -20 -20 -20 -20 -20 -20 -20 -20 -20 -20 -20 -20 -20 -20 -20 -20 -20 -20 -20 -20 -20
-20 -20 -20 -20 -20 -20 -20 -20 -20 -20 -20 -20 -20 -20 -20 -20 -20 -20 -20 -20 -20 -20 -20 -20 -20 -20 -20 -20 -5 -20 -20 -20 -20 -20 -20 -20 -20 -20
-20 -20 -20 -20 -20 -20 -20 -20 -20 -20 -20 -20 -20 -20 -20 -20 -20 -20 -20 -20 -20 -20 -20 -20 -20 -20 -20 -20 -20 -20 -20 -20 -20 -20 -20 -20 -20 -20
-20 -20 -20 -20 -20 -20 -20 -20 -20 -20 -20 -20 -20 -20 -20 -20 -20 -20 -20 -20 -20 -20 -20 -20 -20 -20 -20 -20 -20 -20 -20 -20 -20 -20 -20 -20 -20 -20
-20 -20 -20 -20 -20 -20 -20 -20 -20 -20 -20 -20 -20 -20 -20 -20 -20 -20 -20 -20 -20 -20 -20 -20 -20 1 -20 -20 -20 -20 -20 -20 -20 -20 -20 -20 -20 -20
-20 -20 -20 -20 -20 -20 -20 -20 -20 -20 -20 -20 -20 -20 -20 -20 -20 -20 -20 -20 -20 -15 -20 -20 -20 -20 -20 -20 -20 -20 -20 -20 -20 -20 -20 -20 -20 -20
-20 -20 -20 -20 -20 -20 -20 -20 -20 -20 -20 -20 -20 -20 -20 -20 -20 -20 -20 -20 -20 -20 -20 -20 -20 -20 -20 -20 -12 -20 -20 -20 -20 -20 -20 -20 -20 -20

GFSNE_prec_radar_261.txt.gz
Reflectivity
5 -15 -20 -20 -20 -20 -20 -20 -20 -20 -20 -20 -20 -20 -20 -20 3 -19 -20 -10 -20 -19 6 -19 -11 6 -20 -20 -19 -20 -13 2 -20 -17 16 3 -17 -18
-0 -2 -20 -20 -20 -12 -18 -20 -12 -16 -20 -20 -20 -20 -20 -20 -19 -20 -20 -20 -20 -12 7 -12 -17 3 -4 1 9 -7 6 -20 -6 11 -12 10 16 22
11 -19 -20 -20 -18 -20 -20 -20 -20 -20 -20 -20 -20 -20 -20 -20 -20 -20 -20 -0 -6 4 16 -18 3 7 5 10 4 9 11 4 -15 -16 -2 2 10 18
26 16 -20 -20 -20 -20 -20 -20 -20 -20 -20 -20 -20 -20 -20 -20 -20 -20 -20 -4 -20 -14 8 19 2 10 7 7 3 8 3 -9 -20 -20 -20 -19 -19 4
26 8 -13 -20 -20 -20 -20 -20 -20 -20 -20 -20 -20 -20 -20 -20 -20 -20 -20 -20 -20 12 17 13 3 1 1 1 1 6 -6 -20 -20 4 -20 -20 -20 -18
24 12 -17 -13 -11 -20 -20 -20 -20 -20 -20 -20 -20 -10 -14 -16 -20 -20 -14 5 -1 -3 6 15 10 -8 1 -5 -2 -20 -17 -5 1 -1 -20 -20 -20 -20
23 22 2 -2 4 1 -18 -20 -20 -20 -20 -20 -20 -20 0 -20 -20 -14 4 0 -11 -10 15 2 -2 -9 -15 -19 9 7 10 12 -18 -20 -20 -20 -20 -20
25 21 26 12 -2 3 -20 -20 -20 -20 -20 -20 -20 -20 -20 -11 13 16 -20 -3 2 -13 -19 -20 -20 -20 -20 -18 14 12 9 -20 -20 -20 -20 -20 -20 -20
28 29 22 -11 -8 -20 -13 -20 -20 -20 -20 -20 -20 -20 -14 -19 -20 -20 -20 -20 -20 -20 -20 -20 -20 -20 -20 -20 5 -8 -20 -20 -20 -20 -20 -20 -20 -20
18 -9 -15 6 -16 -15 -20 -20 -20 -20 -20 -19 -20 -20 -20 -20 -20 -20 -20 -20 -20 -20 -20 -20 -20 -20 -20 -20 -20 -20 -20 -20 -20 -20 -20 -20 -20 -20
-20 -20 -13 -13 20 -9 -12 -20 -20 -20 -20 -20 -20 -20 -20 -20 -20 -20 -20 -20 -20 -20 -20 -20 -20 -20 -20 -20 -20 -20 -20 -20 -20 -20 -20 -20 -20 -20
-20 -13 12 11 18 8 -9 -20 -20 -20 -20 -20 -20 -20 -20 -20 -20 -20 -20 -20 -20 -20 -20 -20 -20 -20 -20 -20 -20 -20 -20 -20 -20 -20 -20 -20 -20 -20
-20 -14 -7 14 18 10 -1 -20 -20 -20 -20 -20 -20 -20 -20 -20 -20 -20 -20 -20 -20 -20 -20 -20 -20 -20 -20 -20 -20 -20 -20 -20 -20 -20 -20 -20 -20 -20
-20 -18 5 20 21 13 -6 -20 -20 -20 -20 -20 -20 -20 -20 -20 -20 -20 -20 -20 -20 -20 -20 -20 -20 -20 -20 -20 -20 -20 -20 -20 -20 -20 -20 -20 -20 -20
-20 -20 -20 -4 3 13 -20 -20 -20 -20 -20 -20 -20 -20 -20 -20 -20 -20 -20 -20 -20 -20 -20 -20 -20 -20 -20 -20 -20 -20 -20 -20 -20 -20 -20 -20 -20 -20
-20 -20 -20 -20 -20 -20 -20 -20 -20 -20 -20 -20 -20 -20 -20 -20 -20 -20 -20 -20 -20 -20 -20 -20 -20 -20 -20 -20 -20 -20 -20 -20 -20 -20 -20 -20 -20 -20
-20 -20 -20 -20 -20 -20 -20 -20 -20 -20 -20 -20 -20 -20 -20 -20 -20 -20 -20 -20 -20 -20 -20 -20 -20 -20 -20 -20 -20 -20 -20 -20 -20 -20 -20 -20 -20 -20
-20 -20 -20 -20 -20 -20 -20 -20 -20 -20 -20 -20 -20 -20 -20 -20 -20 -20 -20 -20 -20 -20 -20 -20 -20 -20 -20 -20 -20 -20 -20 -20 -20 -20 -20 -20 -20 -20
-20 -20 -20 -20 -20 -20 -20 -20 -20 -20 -20 -20 -20 -20 -20 -20 -20 -20 -20 -20 -20 -20 -20 -20 -20 -20 -20 -20 -20 -20 -20 -20 -20 -20 -20 -20 -20 -20
-20 -20 -20 -20 -20 -20 -20 -20 -20 -20 -20 -20 -20 -20 -20 -20 -20 -20 -20 -20 -20 -20 -20 -20 -20 -20 -20 -20 -20 -20 -20 -20 -20 -20 -20 -20 -20 -20
-19 -20 -20 -20 -20 -20 -20 -20 -20 -20 -20 -20 -20 -20 -20 -20 -20 -20 -20 -20 -20 -20 -20 -20 -20 -20 -20 -20 -20 -20 -20 -20 -20 -20 -20 -20 -20 -20
-20 -20 -20 -20 -20 -20 -20 -20 -20 -20 -20 -20 -20 -20 -20 -20 -20 -20 -20 -20 -20 -20 -20 -20 -20 -20 -20 -20 -20 -20 -20 -20 -20 -20 -20 -20 -20 -20
-20 -20 -20 -20 -20 -20 -20 -20 -20 -20 -20 -20 -20 -20 -20 -20 -20 -20 -20 -20 -20 -20 -20 -20 -20 -20 -20 -20 -16 -20 -20 -20 -20 -20 -20 -20 -20 -20

GFSNE_prec_radar_264.txt.gz
Reflectivity
-20 -20 -20 -18 -20 -13 -12 -20 -20 -19 -20 -20 -20 -20 -16 -20 -2 -20 -20 -20 -20 -6 11 -20 -20 -20 -16 -0 -20 -20 -17 -20 -20 -20 -16 0 20 21
-20 -20 -5 16 6 5 -18 -20 -20 -16 -20 -20 -20 -20 -20 -20 -20 -20 -20 -20 -20 -20 -7 3 -8 -20 -20 -17 5 -1 -16 -20 -20 -10 8 11 7 15
-20 3 25 19 25 7 -20 -20 -20 -20 -20 -20 -20 -20 -20 -20 -20 -20 -20 -20 -16 2 18 7 13 -10 -18 2 -3 3 6 -14 -20 -20 9 -3 2 -9
18 30 27 12 13 -2 -20 -20 -20 -18 -20 -20 -20 -20 -20 -20 -20 -20 -20 -20 -20 3 -2 19 -20 -0 6 4 6 6 -18 -20 -20 -19 -19 -20 -20 -20
27 27 27 23 14 -19 -7 -20 -11 -20 -20 -20 -20 -20 -20 -20 -20 -20 -20 -20 -12 -5 1 21 9 8 15 2 6 3 5 -20 -20 -20 -20 -20 -20 -20
30 28 31 30 14 13 5 5 -20 -20 -20 -20 -20 -20 -10 -10 -20 -13 -20 -15 5 11 18 12 16 16 -0 -2 -17 -19 -20 -20 -20 -20 -20 -20 -20 -20
24 27 33 27 21 5 14 0 -20 -20 -20 -20 -20 -18 -11 -9 -8 -19 -10 -3 2 5 1 3 16 -9 -18 -18 -15 -20 -20 -20 -20 -20 -20 -20 -20 -20
28 32 33 28 24 23 21 -8 -20 -20 -20 -20 -20 -20 -20 -20 -19 5 23 8 -9 -8 -15 -19 -13 -20 -20 -20 -13 -20 -20 -20 -20 -20 -20 -20 -20 -20
29 31 29 28 26 9 -20 -20 -20 -20 -20 -20 -19 -20 -18 -7 -6 -17 -19 -16 -20 -20 -20 -20 -20 -20 -20 -20 6 10 -20 -20 -20 -20 -20 -20 -20 -20
31 31 30 28 28 -12 -20 -20 -20 -20 -20 -20 -20 -20 -20 -20 -20 -20 -20 -20 -20 -20 -20 -20 -20 -20 -20 -20 -12 1 -20 -20 -20 -20 -20 -20 -20 -20
29 28 26 23 22 -18 -20 -20 -20 -20 -20 -20 -20 -20 -20 -20 -20 -20 -20 -20 -20 -20 -20 -20 -20 -20 -20 -20 -20 -20 -20 -20 -20 -20 -20 -20 -20 -20
-1 2 -8 9 14 11 -11 -20 -20 -20 -20 -20 -20 -20 -20 -20 -20 -20 -20 -20 -20 -20 -20 -20 -20 -20 -20 -20 -20 -20 -20 -20 -20 -20 -20 -20 -20 -20
-19 -16 -12 19 25 19 12 -20 -20 -20 -20 -20 -20 -20 -20 -20 -20 -20 -20 -20 -20 -20 -20 -20 -20 -20 -20 -20 -20 -20 -20 -20 -20 -20 -20 -20 -20 -20
-20 -17 -4 12 22 19 -3 -20 -20 -20 -20 -20 -20 -20 -20 -20 -20 -20 -20 -20 -20 -20 -20 -20 -20 -20 -20 -20 -20 -20 -20 -20 -20 -20 -20 -20 -20 -20
-19 -20 16 24 26 17 -17 -20 -20 -20 -20 -20 -20 -20 -20 -20 -20 -20 -20 -20 -20 -20 -20 -20 -20 -20 -20 -20 -20 -20 -20 -20 -20 -20 -20 -20 -20 -20
-20 -20 -20 -6 24 -13 -20 -20 -20 -20 -20 -20 -20 -20 -20 -20 -20 -20 -20 -20 -20 -20 -20 -20 -20 -20 -20 -20 -20 -20 -20 -20 -20 -20 -20 -20 -20 -20
-20 -20 -20 -20 -20 -20 -20 -20 -20 -20 -20 -20 -20 -20 -20 -20 -20 -20 -20 -20 -20 -20 -20 -20 -20 -20 -20 -20 -20 -20 -20 -20 -20 -20 -20 -20 -20 -20
-20 -20 -20 -20 -20 -20 -20 -20 -20 -20 -20 -20 -20 -20 -20 -20 -20 -20 -20 -20 -20 -20 -20 -20 -20 -20 -20 -20 -20 -20 -20 -20 -20 -20 -20 -20 -20 -20
1 -15 -20 -20 -20 -20 -20 -20 -20 -20 -20 -20 -20 -20 -20 -20 -20 -20 -20 -20 -20 -20 -20 -20 -20 -20 -20 -20 -20 -20 -20 -20 -20 -20 -20 -20 -20 -20
8 -4 -20 -20 -20 -20 -20 -20 -20 -20 -20 -20 -20 -20 -20 -20 -20 -20 -20 -20 -20 -20 -20 -20 -20 -20 -20 -20 -20 -20 -20 -20 -20 -20 -20 -20 -20 -20
10 -14 -20 -19 -17 -20 -20 -20 -20 -20 -20 -20 -20 -20 -20 -20 -20 -20 -20 -20 -20 -20 -20 -20 -20 -20 -20 -20 -20 -20 -20 -20 -20 -20 -20 -20 -20 -20
13 -3 -20 -20 -20 -20 -20 -20 -20 -17 -20 -20 -20 -20 -20 -20 -20 -20 -20 -20 -20 -20 -20 -20 -20 -20 -20 -20 -20 -20 -20 -20 -20 -20 -20 -20 -20 -20
-19 -20 -20 -20 -20 -20 -20 -20 -20 -20 -20 -20 -20 -20 -20 -20 -20 -20 -20 -20 -20 -20 -20 -20 -20 -20 -20 -20 -20 -20 -20 -20 -20 -20 -20 -20 -20 -20

GFSNE_prec_radar_270.txt.gz
Reflectivity
-20 -20 -20 -20 -20 -20 -20 -20 -20 -20 -2 9 3 -4 -20 -20 -14 -20 -17 -12 -20 16 22 -0 -14 -20 -20 -20 -12 1 -20 -20 -20 -20 2 6 12 12
-20 -20 -20 -20 -20 -20 -20 -20 -20 5 5 13 7 -6 -1 -20 -20 -19 -16 -15 -20 -20 -6 4 -20 -19 -20 0 -20 -10 3 -20 5 2 -20 -12 -2 -17
-20 -20 -20 -20 -20 -19 -20 -20 3 -2 -18 -2 -6 -2 -1 -20 -20 -20 -20 -20 -3 -20 -20 -2 -1 -18 -20 -20 -2 -20 -20 -20 -20 -20 -20 -20 -20 -20
-20 -20 -20 -20 -20 -20 -19 11 2 22 14 5 3 11 8 -1 -19 -20 2 9 -20 10 9 13 12 -12 -20 -20 -20 -20 -20 -20 -20 -20 -20 -19 -20 -20
-20 -16 -6 -12 -15 -14 8 19 25 27 18 18 19 -1 -20 -20 -8 -6 -20 6 27 5 17 17 -18 23 17 -3 6 -13 -14 -20 -20 -20 -20 -20 -20 -20
-19 -15 -15 -14 -19 12 26 30 27 17 11 26 27 -5 4 15 12 -9 -7 -5 9 13 19 -8 18 22 23 -0 -17 -20 -20 -20 -20 -20 -20 -20 -20 -20
-11 0 8 14 30 21 20 21 28 27 14 31 28 16 1 15 -17 -20 -4 -7 10 20 19 18 8 -1 -1 -11 -20 -20 -20 -20 -20 -20 -20 -20 -20 -20
11 5 -3 22 26 22 20 17 25 28 28 29 25 18 -0 -15 -18 25 -2 7 16 16 10 18 13 8 -7 -13 -20 -20 -20 -20 -20 -20 -20 -20 -20 -20
1 7 4 3 23 22 17 22 22 26 26 23 24 -3 -7 -20 6 12 -11 16 16 -13 3 -7 -5 -9 -20 -19 3 -1 -20 -20 -20 -20 -20 -20 -20 -20
-20 -20 -6 12 19 19 25 25 26 26 7 18 22 -11 -8 -6 -6 4 5 -13 -20 -20 -20 -20 -20 -20 -20 -20 -16 -4 -19 -20 -20 -20 -20 -20 -20 -20
-20 -17 17 25 26 21 27 27 25 25 23 24 21 7 4 13 -5 -19 -20 -20 -20 -20 -20 -20 -20 -20 -20 -20 -20 -13 -19 -20 -20 -20 -20 -20 -20 -20
-17 1 19 28 23 20 26 25 15 8 5 21 8 -20 -20 -20 -20 -20 -20 -20 -20 -20 -20 -20 -20 -20 -20 -20 -20 -20 -20 -20 -20 -20 -20 -20 -20 -20
-11 -11 7 22 24 26 28 25 -6 -16 -20 -14 -20 -20 -20 -20 -20 -20 -20 -20 -20 -20 -20 -20 -20 -20 -20 -20 -20 -20 -20 -20 -20 -20 -20 -20 -20 -20
-20 -20 27 17 23 24 26 -5 -20 -20 -20 -20 -20 -20 -20 -20 -20 -20 -20 -20 -20 -20 -20 -20 -20 -20 -20 -20 -20 -20 -20 -20 -20 -20 -20 -20 -20 -20
-20 11 18 24 22 25 18 -20 -20 -20 -20 -20 -20 -20 -20 -20 -20 -20 -20 -20 -20 -20 -20 -20 -20 -20 -20 -20 -20 -20 -20 -20 -20 -20 -20 -20 -20 -20
10 -1 11 22 25 22 8 -20 -20 -20 -20 -20 -20 -20 -20 -20 -20 -20 -20 -20 -20 -20 -20 -20 -20 -20 -20 -20 -20 -20 -20 -20 -20 -20 -20 -20 -20 -20
4 -20 16 19 18 7 3 -20 -20 -20 -20 -20 -20 -20 -20 -20 -20 -20 -20 -20 -20 -20 -20 -20 -20 -20 -20 -20 -20 -20 -20 -20 -20 -20 -20 -20 -20 -20
-20 -20 10 17 -5 -3 -13 -20 -20 -20 -20 -20 -20 -20 -20 -20 -20 -20 -20 -20 -20 -20 -20 -20 -20 -20 -20 -20 -20 -20 -20 -20 -20 -20 -20 -20 -20 -20
-20 -20 -16 -6 2 -12 -20 -20 -20 -20 -20 -20 -20 -20 -20 -20 -20 -20 -20 -20 -20 -20 -20 -20 -20 -20 -20 -20 -20 -20 -20 -20 -20 -20 -20 -20 -20 -20
-8 -17 -0 -11 -20 -20 -11 -20 -20 -20 -20 -20 -20 -20 -20 -20 -20 -20 -20 -20 -20 -20 -20 -20 -20 -20 -20 -20 -20 -20 -20 -20 -20 -20 -20 -20 -20 -20
15 -18 -11 -7 -6 -2 -7 -20 -20 -20 -20 -20 -20 -20 -20 -20 -20 -20 -20 -20 -20 -20 -20 -20 -15 -20 -20 -20 -20 -20 -20 -20 -20 -20 -20 -20 -20 -20
16 -5 -15 -20 -20 -20 -20 -20 -20 -20 -20 -20 -20 -20 -20 -20 -20 -20 -20 -20 -20 -20 -20 -20 -20 -20 -20 -20 -20 -20 -20 -20 -20 -20 -20 -20 -20 -20
23 18 20 12 20 10 -20 -20 -20 -20 -20 -20 -20 -20 -20 -20 -20 -20 -20 -20 -20 -20 -20 -20 -20 -20 -20 -20 -20 -20 -20 -20 -20 -20 -20 -20 -20 -20